Time,TemperatureF,DewpointF,PressureIn,WindDirection,WindDirectionDegrees,WindSpeedMPH,WindSpeedGustMPH,Humidity,HourlyPrecipIn,Conditions,Clouds,dailyrainin,SoftwareType,DateUTC
2013-08-30 00:12:00,73.0,71.0,29.74,SSE,166,1.0,6.0,92,0.00,,,1.02,,2013-08-30 05:12:00,
2013-08-30 00:23:00,73.0,71.0,29.76,West,269,0.0,4.0,92,0.00,,,1.02,,2013-08-30 05:23:00,
2013-08-30 00:42:00,72.0,70.0,29.77,West,269,0.0,3.0,94,0.01,,,1.03,,2013-08-30 05:42:00,
2013-08-30 00:52:00,72.0,70.0,29.77,SW,229,0.0,2.0,95,0.01,,,1.03,,2013-08-30 05:52:00,
2013-08-30 01:12:00,72.0,70.0,29.77,SW,229,0.0,1.0,94,0.01,,,1.03,,2013-08-30 06:12:00,
2013-08-30 01:22:00,72.0,70.0,29.78,WSW,244,0.0,3.0,95,0.01,,,1.03,,2013-08-30 06:22:00,
2013-08-30 01:42:00,73.0,71.0,29.77,WSW,244,0.0,2.0,95,0.00,,,1.03,,2013-08-30 06:42:00,
2013-08-30 01:53:00,73.0,71.0,29.76,WSW,248,0.0,3.0,95,0.00,,,1.03,,2013-08-30 06:53:00,
2013-08-30 02:12:00,73.0,71.0,29.77,West,262,0.0,3.0,94,0.00,,,1.03,,2013-08-30 07:12:00,
2013-08-30 02:21:00,73.0,71.0,29.76,West,270,0.0,6.0,94,0.00,,,1.03,,2013-08-30 07:21:00,
2013-08-30 02:43:00,73.0,71.0,29.77,West,270,0.0,3.0,93,0.00,,,1.03,,2013-08-30 07:43:00,
2013-08-30 02:53:00,73.0,71.0,29.77,West,270,0.0,1.0,93,0.00,,,1.03,,2013-08-30 07:53:00,
2013-08-30 03:11:00,73.0,71.0,29.76,West,270,0.0,1.0,93,0.00,,,1.03,,2013-08-30 08:11:00,
2013-08-30 03:22:00,73.0,71.0,29.76,West,270,0.0,1.0,94,0.00,,,1.03,,2013-08-30 08:22:00,
2013-08-30 03:42:00,73.0,71.0,29.76,West,270,0.0,2.0,94,0.00,,,1.03,,2013-08-30 08:42:00,
2013-08-30 03:52:00,73.0,71.0,29.75,South,181,1.0,3.0,94,0.00,,,1.03,,2013-08-30 08:52:00,
2013-08-30 04:12:00,73.0,71.0,29.76,SSW,202,1.0,3.0,94,0.00,,,1.03,,2013-08-30 09:12:00,
2013-08-30 04:22:00,72.0,70.0,29.76,West,265,0.0,3.0,94,0.00,,,1.03,,2013-08-30 09:22:00,
2013-08-30 04:44:00,72.0,70.0,29.78,West,265,0.0,1.0,94,0.00,,,1.03,,2013-08-30 09:44:00,
2013-08-30 04:53:00,72.0,70.0,29.78,West,265,0.0,2.0,95,0.00,,,1.03,,2013-08-30 09:53:00,
2013-08-30 05:12:00,72.0,70.0,29.78,WSW,242,0.0,2.0,94,0.00,,,1.03,,2013-08-30 10:12:00,
2013-08-30 05:23:00,71.0,69.0,29.79,NE,48,0.0,5.0,93,0.00,,,1.03,,2013-08-30 10:23:00,
2013-08-30 05:43:00,71.0,68.0,29.80,NE,34,0.0,4.0,91,0.00,,,1.03,,2013-08-30 10:43:00,
2013-08-30 05:53:00,70.0,67.0,29.80,North,11,0.0,4.0,91,0.00,,,1.03,,2013-08-30 10:53:00,
2013-08-30 06:12:00,70.0,67.0,29.80,NNE,26,0.0,2.0,90,0.00,,,1.03,,2013-08-30 11:12:00,
2013-08-30 06:22:00,69.0,67.0,29.80,NNE,26,0.0,0.0,92,0.00,,,1.03,,2013-08-30 11:22:00,
2013-08-30 06:42:00,68.0,66.0,29.80,North,5,0.0,2.0,93,0.00,,,1.03,,2013-08-30 11:42:00,
2013-08-30 06:52:00,68.0,66.0,29.81,North,5,0.0,1.0,93,0.00,,,1.03,,2013-08-30 11:52:00,
2013-08-30 07:12:00,68.0,66.0,29.81,North,5,0.0,1.0,93,0.00,,,1.03,,2013-08-30 12:12:00,
2013-08-30 07:21:00,68.0,66.0,29.82,North,10,0.0,2.0,93,0.00,,,1.03,,2013-08-30 12:21:00,
2013-08-30 07:42:00,68.0,66.0,29.82,North,10,0.0,1.0,93,0.00,,,1.03,,2013-08-30 12:42:00,
2013-08-30 07:52:00,69.0,67.0,29.82,NNE,16,0.0,3.0,92,0.00,,,1.03,,2013-08-30 12:52:00,
2013-08-30 08:11:00,69.0,66.0,29.83,NNE,26,0.0,3.0,91,0.00,,,1.03,,2013-08-30 13:11:00,
2013-08-30 08:21:00,69.0,66.0,29.83,NE,39,1.0,6.0,91,0.00,,,1.03,,2013-08-30 13:21:00,
2013-08-30 08:52:00,68.0,67.0,29.85,ENE,63,0.0,4.0,96,0.00,,,1.03,,2013-08-30 13:52:00,
2013-08-30 09:11:00,69.0,68.0,29.85,NNW,347,0.0,5.0,96,0.00,,,1.03,,2013-08-30 14:11:00,
2013-08-30 09:21:00,69.0,67.0,29.85,NE,52,1.0,5.0,94,0.00,,,1.03,,2013-08-30 14:21:00,
2013-08-30 09:42:00,70.0,67.0,29.86,NNE,26,1.0,5.0,91,0.00,,,1.03,,2013-08-30 14:42:00,
2013-08-30 09:52:00,70.0,67.0,29.87,East,82,0.0,5.0,91,0.00,,,1.03,,2013-08-30 14:52:00,
2013-08-30 10:11:00,70.0,67.0,29.87,East,79,1.0,5.0,89,0.00,,,1.03,,2013-08-30 15:11:00,
2013-08-30 10:22:00,70.0,67.0,29.88,ENE,60,0.0,3.0,90,0.00,,,1.03,,2013-08-30 15:22:00,
2013-08-30 10:43:00,72.0,69.0,29.88,NE,44,0.0,4.0,91,0.00,,,1.03,,2013-08-30 15:43:00,
2013-08-30 10:54:00,73.0,70.0,29.88,NE,45,0.0,3.0,89,0.00,,,1.03,,2013-08-30 15:54:00,
2013-08-30 11:13:00,74.0,68.0,29.88,NE,55,0.0,3.0,83,0.00,,,1.03,,2013-08-30 16:13:00,
2013-08-30 11:25:00,74.0,70.0,29.88,NNE,32,1.0,4.0,86,0.00,,,1.03,,2013-08-30 16:25:00,
2013-08-30 11:43:00,74.0,69.0,29.89,ENE,60,0.0,3.0,85,0.00,,,1.03,,2013-08-30 16:43:00,
2013-08-30 11:53:00,73.0,68.0,29.89,NE,46,0.0,7.0,84,0.00,,,1.03,,2013-08-30 16:53:00,
2013-08-30 12:13:00,74.0,68.0,29.90,NE,55,1.0,4.0,81,0.00,,,1.03,,2013-08-30 17:13:00,
2013-08-30 12:23:00,74.0,68.0,29.90,North,5,0.0,3.0,83,0.00,,,1.03,,2013-08-30 17:23:00,
2013-08-30 12:42:00,74.0,66.0,29.91,NNE,17,2.0,7.0,77,0.00,,,1.03,,2013-08-30 17:42:00,
2013-08-30 12:53:00,74.0,67.0,29.90,NE,43,0.0,8.0,80,0.00,,,1.03,,2013-08-30 17:53:00,
2013-08-30 13:12:00,74.0,67.0,29.90,NE,34,1.0,7.0,80,0.00,,,1.03,,2013-08-30 18:12:00,
2013-08-30 13:22:00,74.0,68.0,29.91,NE,41,1.0,6.0,81,0.00,,,1.03,,2013-08-30 18:22:00,
2013-08-30 13:42:00,74.0,66.0,29.91,NE,34,1.0,6.0,76,0.00,,,1.03,,2013-08-30 18:42:00,
2013-08-30 13:52:00,75.0,67.0,29.91,ENE,73,2.0,6.0,75,0.00,,,1.03,,2013-08-30 18:52:00,
2013-08-30 14:12:00,76.0,67.0,29.91,ENE,71,1.0,4.0,75,0.00,,,1.03,,2013-08-30 19:12:00,
2013-08-30 14:22:00,77.0,70.0,29.91,ENE,57,0.0,3.0,78,0.00,,,1.03,,2013-08-30 19:22:00,
2013-08-30 14:53:00,76.0,67.0,29.90,ENE,61,1.0,8.0,74,0.00,,,1.03,,2013-08-30 19:53:00,
2013-08-30 15:11:00,76.0,67.0,29.90,SE,135,2.0,9.0,75,0.00,,,1.03,,2013-08-30 20:11:00,
2013-08-30 15:22:00,76.0,67.0,29.90,NNE,13,1.0,5.0,75,0.00,,,1.03,,2013-08-30 20:22:00,
2013-08-30 15:52:00,74.0,66.0,29.90,ENE,62,1.0,7.0,77,0.00,,,0.01,,2013-08-30 20:52:00,
2013-08-30 16:11:00,74.0,67.0,29.91,SSE,153,2.0,8.0,79,0.00,,,0.01,,2013-08-30 21:11:00,
2013-08-30 16:22:00,74.0,66.0,29.90,NE,38,2.0,5.0,75,0.00,,,0.01,,2013-08-30 21:22:00,
2013-08-30 16:54:00,74.0,66.0,29.91,North,5,1.0,5.0,77,0.00,,,0.01,,2013-08-30 21:54:00,
2013-08-30 17:13:00,74.0,66.0,29.91,ENE,61,1.0,7.0,75,0.00,,,0.01,,2013-08-30 22:13:00,
2013-08-30 17:24:00,74.0,66.0,29.90,NNE,21,1.0,5.0,75,0.00,,,0.01,,2013-08-30 22:24:00,
2013-08-30 17:54:00,74.0,66.0,29.90,ENE,61,1.0,4.0,75,0.00,,,0.01,,2013-08-30 22:54:00,
2013-08-30 18:12:00,73.0,64.0,29.90,East,79,0.0,4.0,74,0.00,,,0.01,,2013-08-30 23:12:00,
2013-08-30 18:22:00,73.0,65.0,29.89,NNE,28,0.0,4.0,76,0.00,,,0.01,,2013-08-30 23:22:00,
2013-08-30 18:53:00,72.0,64.0,29.89,SSW,192,0.0,3.0,77,0.00,,,0.01,,2013-08-30 23:53:00,
2013-08-30 19:11:00,71.0,64.0,29.89,NE,46,0.0,3.0,79,0.00,,,0.01,,2013-08-31 00:11:00,
2013-08-30 19:22:00,71.0,65.0,29.89,NE,38,0.0,3.0,82,0.00,,,0.01,,2013-08-31 00:22:00,
2013-08-30 19:42:00,70.0,65.0,29.88,NE,38,0.0,3.0,84,0.00,,,0.01,,2013-08-31 00:42:00,
2013-08-30 19:52:00,69.0,65.0,29.88,NE,38,0.0,1.0,87,0.00,,,0.01,,2013-08-31 00:52:00,
2013-08-30 20:11:00,68.0,65.0,29.88,NE,38,0.0,0.0,89,0.00,,,0.01,,2013-08-31 01:11:00,
2013-08-30 20:22:00,68.0,65.0,29.88,NE,38,0.0,0.0,89,0.00,,,0.01,,2013-08-31 01:22:00,
2013-08-30 20:42:00,67.0,64.0,29.88,NE,38,0.0,0.0,91,0.00,,,0.01,,2013-08-31 01:42:00,
2013-08-30 20:52:00,67.0,64.0,29.88,NE,38,0.0,0.0,91,0.00,,,0.01,,2013-08-31 01:52:00,
2013-08-30 21:12:00,67.0,65.0,29.88,NE,38,0.0,1.0,92,0.00,,,0.01,,2013-08-31 02:12:00,
2013-08-30 21:22:00,66.0,64.0,29.88,NE,38,0.0,1.0,92,0.00,,,0.01,,2013-08-31 02:22:00,
2013-08-30 21:42:00,66.0,64.0,29.88,NE,38,0.0,1.0,93,0.00,,,0.01,,2013-08-31 02:42:00,
2013-08-30 21:52:00,65.0,63.0,29.88,NE,38,0.0,0.0,94,0.00,,,0.01,,2013-08-31 02:52:00,
2013-08-30 22:12:00,65.0,64.0,29.88,NE,38,0.0,0.0,95,0.00,,,0.01,,2013-08-31 03:12:00,
2013-08-30 22:22:00,65.0,64.0,29.88,NE,38,0.0,0.0,95,0.00,,,0.01,,2013-08-31 03:22:00,
2013-08-30 22:44:00,64.0,63.0,29.88,NE,38,0.0,0.0,96,0.00,,,0.01,,2013-08-31 03:44:00,
2013-08-30 22:54:00,64.0,63.0,29.88,NE,38,0.0,0.0,96,0.00,,,0.01,,2013-08-31 03:54:00,
2013-08-30 23:14:00,64.0,63.0,29.88,NE,38,0.0,0.0,96,0.00,,,0.01,,2013-08-31 04:14:00,
2013-08-30 23:24:00,64.0,63.0,29.89,NE,38,0.0,0.0,96,0.00,,,0.01,,2013-08-31 04:24:00,
2013-08-30 23:44:00,63.0,62.0,29.88,NE,38,0.0,0.0,97,0.00,,,0.01,,2013-08-31 04:44:00,
2013-08-30 23:54:00,63.0,62.0,29.88,NE,38,0.0,0.0,97,0.00,,,0.01,,2013-08-31 04:54:00,